Wind_Speed
15 17 19 20 25 34 35 36 33 35 33 36 39 52 49 42 45 42 36 38 38 42 60 61 63 56 50 52 53 50 48 45 40 38 33 31 32 33 32 30 27 27 28 31
16 23 19 19 22 26 32 37 42 30 17 32 39 49 43 39 44 43 45 46 44 47 60 59 55 56 53 50 45 45 45 46 43 36 31 30 31 27 26 26 26 29 29 29
19 19 14 16 18 23 30 34 37 38 28 23 30 40 40 39 38 40 42 42 47 58 61 62 60 59 54 47 41 40 37 36 35 33 33 33 32 29 27 28 27 27 28 30
20 15 17 21 23 22 28 31 33 33 34 41 27 28 34 36 41 43 41 38 42 47 50 53 54 51 47 43 41 41 34 33 34 34 35 34 30 31 28 26 27 29 30 31
28 22 21 23 24 23 28 23 32 32 33 40 43 35 35 29 34 30 30 34 38 45 45 43 42 41 39 36 35 32 31 32 35 32 30 29 34 31 28 28 27 28 27 28
24 19 23 27 24 19 21 19 25 29 24 24 36 37 36 37 39 32 25 29 31 28 31 34 34 34 34 35 35 32 31 33 34 30 30 28 27 28 28 26 25 25 24 25
19 17 17 20 24 23 20 22 15 20 24 20 31 31 32 9 7 13 16 18 15 17 27 23 29 30 28 32 32 30 29 30 30 30 32 27 27 28 27 24 24 24 23 21
10 11 11 6 21 26 29 26 26 20 17 22 41 32 30 21 24 21 13 15 16 14 16 16 23 27 28 22 22 24 27 30 32 31 31 30 28 27 24 25 24 24 19 21
14 9 15 7 9 19 28 31 28 34 28 23 30 37 39 21 11 7 6 6 8 13 18 19 19 17 17 19 20 20 19 20 22 24 26 25 21 21 22 22 21 19 19 16
14 15 11 11 7 13 15 24 8 30 13 20 22 29 26 27 33 12 9 6 9 21 21 17 16 20 22 19 17 16 17 19 20 19 19 18 18 19 19 18 16 14 15 15
17 13 14 13 9 8 11 15 21 20 29 13 12 24 28 16 16 15 3 6 10 16 20 22 21 20 20 17 18 18 18 20 20 18 18 17 16 16 15 13 13 15 13 12
17 12 17 18 13 11 11 11 11 9 26 28 17 3 14 23 15 7 7 14 16 9 15 20 21 23 20 20 19 17 17 19 18 17 16 15 13 12 12 13 13 11 11 11
11 9 16 13 9 5 9 14 14 17 20 17 16 5 19 16 7 6 12 15 18 18 11 21 24 24 24 22 20 18 18 17 17 16 13 10 10 11 11 12 10 9 9 9
18 18 20 17 23 18 16 14 14 17 18 20 26 25 10 13 10 11 13 17 17 16 3 22 26 26 24 22 21 20 17 17 16 13 10 10 10 10 10 10 9 9 9 8
18 22 23 24 23 23 23 23 20 22 25 26 26 31 28 23 21 24 17 20 17 13 9 21 25 26 24 23 22 19 18 17 14 10 9 9 8 10 10 9 9 9 9 9
18 19 17 26 23 23 27 27 27 26 26 29 30 38 30 30 29 28 24 20 17 12 9 21 25 23 23 22 21 18 19 15 12 9 8 8 9 10 9 9 9 9 9 9
26 23 15 18 13 16 22 23 23 28 26 27 31 33 27 31 28 27 24 19 16 12 7 20 23 22 21 19 17 19 17 13 9 8 7 9 9 9 9 9 9 10 11 10
21 18 15 11 7 10 17 11 11 13 17 22 31 31 28 27 24 24 22 19 9 5 4 19 22 19 19 20 21 19 15 10 9 9 10 10 9 8 8 10 11 13 12 10
13 17 8 8 13 19 26 15 8 16 21 22 26 23 22 21 19 21 15 9 6 8 11 23 19 17 20 23 20 17 13 12 12 12 12 10 9 8 9 11 14 13 11 10
12 15 16 8 5 5 5 9 12 18 27 8 19 19 15 13 18 8 7 6 5 8 20 24 20 22 22 20 18 15 14 15 15 13 11 10 8 8 10 12 13 12 10 10
10 13 25 23 10 10 14 20 25 10 7 9 12 15 13 16 16 12 12 10 15 17 27 24 24 22 19 18 17 17 17 17 16 13 10 8 8 9 10 11 11 12 11 9
8 8 4 10 9 6 18 25 11 17 24 20 8 11 16 14 15 14 13 13 16 22 27 27 26 22 18 18 19 19 20 20 18 14 9 9 9 10 10 11 12 12 11 10
9 19 12 7 13 16 19 18 19 8 15 18 14 9 12 18 17 17 14 14 14 24 26 24 23 20 20 20 20 22 21 22 17 13 12 12 11 11 11 12 11 10 10 10
18 24 17 17 22 23 21 23 16 9 4 11 9 10 11 15 17 15 12 16 17 30 26 22 21 20 22 21 22 22 22 19 16 15 14 14 12 11 11 9 8 6 6 6
15 21 22 19 26 25 24 21 11 10 5 7 6 10 10 13 16 15 15 17 20 32 30 22 20 21 21 22 22 22 23 19 17 16 14 13 12 10 10 8 7 6 5 6
16 19 21 23 25 21 21 19 8 11 5 6 7 10 13 16 19 15 17 20 28 31 28 26 22 21 20 21 21 21 21 19 17 15 14 11 9 8 8 8 7 7 5 6
Wind_Direction
265 263 259 263 249 252 250 251 256 251 249 241 239 246 249 247 247 246 246 247 247 249 250 254 260 262 264 268 268 266 264 260 263 267 261 262 258 259 262 263 263 269 271 261
272 260 273 266 256 252 249 250 249 253 258 234 240 247 251 247 246 247 250 253 254 252 250 253 257 259 264 270 272 269 265 262 256 256 249 255 253 252 256 257 261 264 262 263
272 266 268 270 264 260 252 250 251 247 251 245 243 251 246 244 246 246 246 249 253 256 258 259 260 262 266 268 270 264 260 252 246 242 239 246 245 250 255 258 261 263 262 264
279 278 265 259 260 258 263 251 250 249 245 243 235 254 248 251 253 252 253 256 260 258 260 261 260 260 260 261 259 258 252 242 232 232 237 241 244 251 255 253 258 258 259 263
269 280 277 267 260 257 257 261 244 244 246 244 242 255 254 246 247 245 246 252 260 262 262 266 262 259 254 250 244 250 245 236 224 230 239 247 251 250 247 251 261 262 266 263
279 281 278 261 250 252 249 259 248 238 246 249 238 235 254 252 252 252 252 259 262 263 258 256 258 252 247 243 240 244 239 230 226 232 239 242 242 241 245 253 259 259 263 261
309 306 282 258 239 235 238 238 246 229 232 239 237 232 237 229 215 224 253 253 239 253 245 244 254 248 241 243 240 236 239 231 229 231 233 241 246 243 246 247 252 258 258 262
321 336 349 237 235 238 231 231 238 242 233 234 232 239 229 244 259 258 248 249 254 239 247 242 240 241 239 243 236 232 231 231 233 234 232 240 247 242 235 246 252 253 252 256
316 308 320 297 266 241 243 244 244 258 264 277 230 223 244 231 241 230 235 276 271 269 237 224 233 238 223 216 215 219 218 220 224 227 231 234 221 227 242 248 245 246 251 252
312 304 309 302 289 250 244 236 285 244 257 250 238 214 217 227 228 237 244 304 308 242 236 222 216 214 208 208 210 211 209 210 209 203 198 207 221 234 238 239 242 239 240 249
302 288 291 299 268 254 261 246 246 241 239 265 227 219 218 206 163 175 184 350 335 254 226 216 212 204 200 204 198 197 196 191 184 190 202 214 225 228 236 241 237 247 245 250
295 282 287 288 272 257 252 244 239 253 224 249 293 52 159 152 147 121 42 15 10 295 223 200 197 191 193 182 181 182 187 186 189 198 205 210 224 242 246 246 238 242 246 238
291 272 301 294 217 205 228 249 239 265 264 262 242 163 164 147 139 23 24 13 11 6 189 178 180 182 177 176 178 180 184 188 194 196 206 224 236 245 240 236 242 236 223 218
276 266 263 273 289 308 296 278 261 260 275 265 248 250 185 200 288 308 330 353 357 5 253 173 175 173 173 173 180 185 192 190 194 202 220 232 244 237 237 239 210 199 208 210
267 263 263 269 276 279 278 273 265 258 256 258 258 259 249 256 274 288 291 323 337 349 348 173 170 170 172 177 186 190 190 187 194 207 226 237 230 236 213 195 186 195 202 186
260 269 275 271 268 270 274 269 264 262 255 254 257 261 255 264 272 283 293 302 314 328 343 182 176 172 176 183 191 194 184 188 195 216 227 226 213 201 193 187 194 198 185 184
265 272 276 258 267 271 272 274 265 259 252 247 254 264 265 264 267 274 277 285 294 316 322 189 176 176 180 188 194 182 183 189 205 209 208 199 198 196 198 196 192 181 177 182
249 255 250 272 277 256 259 263 281 275 254 247 252 261 263 264 267 267 267 271 265 295 266 187 170 179 184 181 179 179 181 190 195 182 177 178 177 180 182 182 181 168 177 185
231 232 248 238 235 266 285 267 262 305 267 243 246 257 266 259 261 254 254 255 261 278 169 177 166 174 176 175 176 177 185 183 169 164 170 160 162 156 159 170 169 163 170 175
339 227 224 248 246 256 264 277 276 305 288 268 245 253 253 240 239 241 236 215 232 173 167 167 166 166 173 175 176 181 179 173 158 166 165 159 151 154 162 166 166 161 170 170
320 229 233 244 252 267 269 283 294 256 288 265 223 211 204 233 223 215 188 181 148 168 167 167 163 162 171 178 177 175 172 163 160 167 169 161 154 158 161 160 161 160 169 164
316 312 270 246 247 263 304 308 283 261 251 250 240 234 217 210 196 171 167 160 136 162 167 160 157 164 172 174 173 171 171 159 168 163 164 148 152 157 162 159 155 158 166 175
342 336 306 296 300 345 344 322 334 325 269 219 225 236 216 185 181 177 176 160 141 162 162 158 157 166 168 169 171 173 168 168 153 168 145 142 142 147 160 168 175 177 180 186
337 346 330 338 349 341 356 354 34 74 137 176 218 202 193 201 176 187 181 164 158 163 152 158 162 165 166 168 167 175 166 161 161 154 151 145 141 143 152 153 155 157 178 192
330 344 344 344 346 344 354 350 46 87 207 173 183 202 189 191 176 185 174 164 169 164 153 160 159 163 163 162 166 170 163 164 170 159 151 145 144 154 158 158 164 166 175 167
337 345 342 340 348 343 343 350 117 105 192 223 220 194 177 162 173 177 164 166 159 156 155 150 157 154 150 157 165 165 166 168 173 162 148 144 147 155 162 171 164 158 156 146
Height
3063 3060 3059 3059 3059 3056 3058 3055 3051 3054 3060 3063 3060 3054 3059 3068 3070 3069 3073 3077 3079 3080 3084 3085 3090 3091 3093 3093 3093 3094 3097 3099 3099 3099 3101 3102 3103 3103 3104 3104 3104 3104 3103 3102
3058 3053 3054 3053 3052 3052 3052 3051 3047 3052 3052 3054 3053 3045 3052 3057 3056 3060 3063 3066 3066 3067 3071 3076 3081 3082 3083 3082 3082 3084 3085 3086 3089 3091 3094 3095 3096 3096 3097 3097 3097 3097 3096 3097
3051 3050 3049 3048 3048 3047 3046 3045 3045 3046 3050 3048 3048 3040 3042 3045 3047 3048 3050 3052 3054 3056 3060 3065 3068 3069 3072 3071 3073 3073 3074 3076 3079 3084 3086 3088 3088 3090 3090 3091 3091 3090 3091 3091
3045 3044 3043 3043 3042 3043 3039 3042 3042 3043 3045 3037 3043 3029 3034 3036 3036 3039 3040 3043 3044 3048 3051 3052 3054 3057 3060 3062 3063 3063 3065 3068 3072 3075 3078 3080 3082 3082 3084 3084 3084 3084 3084 3084
3040 3039 3038 3036 3035 3036 3033 3036 3035 3036 3034 3036 3032 3031 3022 3029 3027 3030 3033 3034 3035 3038 3039 3042 3043 3045 3048 3051 3054 3055 3058 3060 3065 3069 3071 3074 3074 3075 3076 3077 3078 3078 3078 3078
3034 3033 3031 3028 3029 3030 3031 3032 3031 3031 3030 3019 3019 3024 3015 3021 3020 3024 3027 3029 3029 3030 3031 3031 3033 3035 3039 3042 3046 3048 3050 3054 3058 3062 3066 3067 3068 3069 3070 3071 3072 3072 3072 3073
3030 3026 3021 3021 3024 3026 3027 3028 3026 3021 3016 3011 3016 3017 3011 3013 3014 3018 3019 3022 3023 3022 3022 3022 3024 3027 3030 3032 3036 3041 3044 3048 3052 3055 3058 3060 3062 3063 3065 3066 3066 3066 3067 3067
3027 3020 3019 3019 3020 3020 3020 3022 3017 3009 3002 3001 3010 3004 3002 3012 3012 3010 3014 3017 3016 3016 3016 3016 3018 3019 3022 3026 3031 3035 3038 3041 3044 3048 3051 3054 3056 3057 3060 3061 3061 3061 3061 3062
3027 3022 3019 3018 3015 3017 3015 3016 3016 3010 3004 2996 2989 3000 3006 3005 3008 3009 3011 3011 3010 3009 3008 3010 3013 3016 3019 3022 3026 3030 3033 3036 3039 3042 3045 3048 3050 3053 3055 3056 3056 3057 3057 3058
3028 3022 3017 3014 3008 3012 3010 3013 3014 3007 3005 2990 2983 2985 2992 2990 3001 3006 3008 3006 3003 3001 3003 3006 3008 3011 3015 3020 3023 3026 3029 3032 3035 3038 3041 3044 3047 3049 3050 3051 3052 3053 3055 3055
3025 3022 3016 3013 3010 3008 3010 3010 3010 3006 2999 2986 2974 2977 2984 2988 2994 3001 3003 3001 2998 2996 2998 3000 3003 3007 3013 3017 3020 3023 3026 3029 3032 3036 3039 3042 3044 3046 3046 3047 3048 3050 3051 3052
3023 3018 3013 3008 3006 3005 3004 3005 3003 3001 2998 2989 2989 2976 2980 2985 2993 2997 2997 2995 2995 2992 2993 2996 3000 3005 3010 3014 3017 3021 3024 3028 3031 3034 3037 3039 3040 3041 3042 3043 3045 3047 3048 3049
3019 3014 3009 3001 3001 2999 3002 3002 3002 3001 3000 2993 2984 2976 2983 2987 2990 2991 2990 2992 2993 2993 2990 2992 2998 3003 3007 3011 3016 3020 3023 3026 3029 3031 3034 3036 3037 3038 3039 3041 3042 3044 3045 3046
3014 3011 3009 3004 2996 2996 2999 3000 2999 2998 2995 2990 2984 2978 2983 2985 2986 2986 2986 2988 2992 2993 2990 2992 2996 3001 3006 3010 3014 3018 3021 3024 3027 3029 3031 3033 3034 3035 3036 3038 3039 3041 3042 3043
3008 3004 3004 3000 2999 2997 2996 2996 2995 2994 2992 2990 2987 2980 2983 2986 2988 2985 2983 2986 2991 2993 2993 2992 2995 3000 3003 3008 3012 3015 3018 3022 3025 3027 3029 3030 3031 3033 3034 3035 3037 3038 3040 3041
3001 2998 2999 2995 2995 2993 2989 2987 2988 2988 2987 2986 2983 2977 2983 2982 2983 2981 2982 2985 2988 2990 2991 2991 2994 2998 3002 3006 3010 3013 3017 3021 3024 3025 3026 3028 3029 3030 3032 3034 3035 3036 3038 3040
2995 2994 2994 2989 2988 2987 2982 2979 2977 2977 2978 2979 2976 2973 2979 2976 2978 2979 2978 2980 2983 2985 2987 2989 2993 2997 3001 3005 3009 3012 3017 3020 3022 3023 3024 3026 3028 3029 3031 3032 3034 3036 3038 3040
2987 2989 2991 2986 2986 2981 2973 2973 2973 2971 2970 2971 2968 2967 2969 2971 2973 2974 2975 2977 2979 2981 2983 2988 2991 2996 3000 3004 3008 3012 3016 3018 3020 3022 3024 3026 3027 3028 3029 3030 3033 3035 3038 3039
2984 2986 2986 2982 2978 2973 2969 2968 2968 2964 2959 2962 2961 2962 2964 2965 2966 2967 2971 2974 2976 2977 2981 2986 2990 2994 2999 3003 3007 3011 3015 3017 3019 3022 3023 3026 3027 3027 3028 3030 3033 3035 3037 3040
2982 2981 2983 2978 2976 2969 2965 2962 2962 2961 2951 2951 2952 2956 2959 2961 2962 2969 2971 2970 2973 2975 2980 2985 2989 2993 2998 3002 3007 3011 3014 3016 3021 3024 3024 3026 3026 3027 3029 3031 3033 3036 3037 3039
2980 2978 2976 2974 2972 2966 2961 2959 2958 2958 2953 2946 2947 2950 2951 2956 2961 2965 2966 2968 2968 2974 2979 2984 2987 2993 2999 3003 3006 3010 3013 3017 3022 3024 3025 3025 3026 3029 3030 3032 3034 3036 3038 3040
2981 2977 2973 2970 2967 2963 2957 2954 2951 2948 2943 2941 2946 2948 2949 2951 2957 2961 2964 2966 2966 2973 2978 2983 2986 2993 2999 3002 3006 3009 3013 3018 3022 3024 3024 3025 3027 3029 3031 3032 3034 3036 3038 3040
2981 2977 2974 2971 2965 2960 2954 2946 2941 2936 2933 2937 2942 2945 2947 2949 2954 2958 2962 2965 2967 2973 2980 2984 2988 2993 2998 3002 3006 3009 3013 3017 3020 3022 3024 3026 3028 3029 3031 3033 3035 3036 3038 3040
2981 2975 2971 2968 2964 2956 2949 2943 2938 2936 2936 2938 2940 2943 2946 2950 2953 2957 2960 2963 2968 2974 2981 2987 2989 2994 2998 3002 3006 3010 3013 3018 3021 3022 3025 3027 3029 3030 3033 3034 3035 3037 3038 3039
2981 2975 2970 2965 2959 2954 2948 2944 2937 2937 2938 2939 2941 2942 2945 2949 2954 2957 2960 2963 2969 2975 2980 2988 2992 2996 2999 3002 3007 3010 3013 3019 3023 3023 3026 3028 3030 3032 3034 3035 3036 3038 3038 3039
2979 2974 2969 2963 2959 2954 2948 2943 2939 2937 2939 2939 2940 2941 2945 2947 2951 2956 2960 2965 2970 2976 2982 2988 2994 2997 3000 3003 3008 3011 3015 3018 3022 3024 3027 3030 3031 3032 3034 3035 3037 3038 3038 3038